Meteo Giornale » Osservazioni meteo Stati Uniti (USA) » Worthington
ore: 15:56 - Osservazioni Meteo Worthington
Lat. 43° 39' N Lon. 95° 35' W Alt. 480 metri s.l.m.
0 °C
Sereno
Temp. 24 Ore
0 °C
0 °C
Nord
0 Km/h
Dew point 0 °C
Umidità 47 %
Visibilità 10 Km
Il sole sorge alle ore 06:45
Il sole tramonta alle ore 19:59
| Data e Ora | Cielo e Fenomeni | T °C | DP °C | Um. % | Pres. hPa | Vis. km | Vento km/h | |
|---|---|---|---|---|---|---|---|---|
| Oggi h: 15:56 | Sereno | 0 | 0 | 47 | 1014 | 10 | N 0 | |
| Oggi h: 14:56 | Sereno | 0 | 0 | 44 | 1014 | 10 | NE 7.4 | |
| Oggi h: 13:56 | Sereno | 0 | 0 | 54 | 1014 | 10 | N 13 | |
| Oggi h: 12:56 | Sereno | 0 | 0 | 78 | 1014 | 10 | NO 13 | |
| Oggi h: 11:56 | Sereno | 0 | 0 | 73 | 1014 | 10 | N 9.3 | |
| Oggi h: 10:56 | Sereno | 0 | 0 | 100 | 1014 | 10 | N/NO 11.1 | |
| Oggi h: 09:56 | Sereno | 0 | 0 | 94 | 1013 | 10 | N/NO 14.8 | |
| Oggi h: 08:56 | Sereno | 0 | 0 | 83 | 1012 | 10 | N 11.1 | |
| Oggi h: 07:56 | Sereno | 0 | 0 | 87 | 1011 | 10 | N 0 | |
| Oggi h: 06:56 | Foschia | 0 | 0 | 100 | 1010 | 10 | N 0 | |
| Oggi h: 05:56 | Sereno | 0 | 0 | 93 | 1010 | 10 | O 11.1 | |
| Oggi h: 04:56 | Sereno | 0 | 0 | 100 | 1009 | 10 | SO 13 | |
| Oggi h: 03:56 | Sereno | 0 | 0 | 100 | 1009 | 10 | S/SO 13 | |
| Oggi h: 02:56 | Sereno | 0 | 0 | 93 | 1009 | 10 | S/SO 9.3 | |
| Oggi h: 01:56 | Sereno | 0 | 0 | 93 | 1009 | 10 | S/SO 13 | |
| Oggi h: 00:56 | Sereno | 0 | 0 | 57 | 1009 | 10 | S/SO 11.1 | |
| Ieri h: 23:56 | Sereno | 0 | 0 | 88 | 1009 | 10 | S/SO 13 | |
| Ieri h: 22:56 | Sereno | 0 | 0 | 100 | 1009 | 10 | S 14.8 | |
| Ieri h: 21:56 | Sereno | 0 | 0 | 82 | 1008 | 10 | S 14.8 | |
| Ieri h: 20:56 | Sereno | 0 | 0 | 88 | 1008 | 10 | S 16.7 | |
| Ieri h: 19:56 | Sereno | 0 | 0 | 77 | 1008 | 10 | S 16.7 | |
| Ieri h: 18:56 | Sereno | 0 | 0 | 82 | 1008 | 10 | S 22.2 | |
| Ieri h: 17:56 | Sereno | 0 | 0 | 34 | 1008 | 10 | S 18.5 | |
| Ieri h: 16:56 | Sereno | 0 | 0 | 67 | 1007 | 10 | S/SE 24 | |



